K5EBQ Weather Reports


Display with metric or nautical units.
time (UTC)temp
F
wind
direction
speed
MPH
gust
MPH
rain 1hr
in
rain 24hr
in
rain mn
in
humidity
%
barometer
mb
20260901200025 91 329 0.0 0.0 0.00 0.00 0.00 64 1011.7
20260901194524 91 51 0.0 0.0 0.00 0.00 0.00 63 1011.9
20260901193024 91 81 0.0 0.0 0.00 0.00 0.00 60 1011.9
20260901191523 92 328 0.0 0.0 0.00 0.00 0.00 61 1011.9
20260901190026 92 318 0.0 0.0 0.00 0.00 0.00 61 1011.9
20260901184520 91 5 0.0 0.0 0.00 0.00 0.00 63 1012.0
20260901183024 91 341 0.0 0.0 0.00 0.00 0.00 62 1012.2
20260901181517 91 334 0.0 0.0 0.00 0.00 0.00 64 1012.4
20260901180020 91 9 0.0 0.0 0.00 0.00 0.00 65 1012.5
20260901174515 91 355 0.0 0.0 0.00 0.00 0.00 64 1012.8
20260901173012 90 334 0.0 0.0 0.00 0.00 0.00 67 1013.1
20260901171509 89 9 0.0 0.0 0.00 0.00 0.00 69 1013.4
20260901170012 89 19 0.0 0.0 0.00 0.00 0.00 70 1013.6
20260901164508 88 350 0.0 0.0 0.00 0.00 0.00 70 1013.7
20260901163008 88 341 0.0 0.0 0.00 0.00 0.00 71 1013.7
20260901161507 88 328 0.0 0.0 0.00 0.00 0.00 72 1013.7
20260901160011 89 319 0.0 0.0 0.00 0.00 0.00 72 1013.4
20260901154505 88 338 0.0 0.0 0.00 0.00 0.00 72 1013.5
20260901153004 88 309 0.0 0.0 0.00 0.00 0.00 73 1013.4
20260901151505 88 355 0.0 0.0 0.00 0.00 0.00 74 1013.4
20260901150007 89 345 0.0 0.0 0.00 0.00 0.00 73 1013.5
20260901144502 89 346 0.0 0.0 0.00 0.00 0.00 75 1013.5
20260901143107 87 329 0.0 0.0 0.00 0.00 0.00 77 1013.5
20260901141602 84 333 0.0 0.0 0.00 0.00 0.00 83 1013.6
20260901140050 83 336 0.0 0.0 0.00 0.00 0.00 84 1013.6
20260901134550 82 342 0.0 0.0 0.00 0.00 0.00 87 1013.9
20260901133049 81 340 0.0 0.0 0.00 0.00 0.00 89 1013.8
20260901131548 81 315 0.0 0.0 0.00 0.00 0.00 89 1013.4
20260901130043 80 205 0.0 0.0 0.00 0.00 0.00 90 1013.2
20260901124542 80 188 0.0 0.0 0.00 0.00 0.00 91 1013.1
20260901123041 80 161 0.0 0.0 0.00 0.00 0.00 91 1012.9
20260901121541 80 161 0.0 0.0 0.00 0.00 0.00 91 1012.7
20260901120043 80 161 0.0 0.0 0.00 0.00 0.00 90 1012.6
20260901114537 80 162 0.0 0.0 0.00 0.00 0.00 91 1012.4
20260901113037 80 162 0.0 0.0 0.00 0.00 0.00 91 1012.5
20260901111541 80 162 0.0 0.0 0.00 0.00 0.00 91 1012.6
20260901110037 80 162 0.0 0.0 0.00 0.00 0.00 90 1012.4
20260901104534 80 162 0.0 0.0 0.00 0.00 0.00 90 1012.4
20260901103034 80 162 0.0 0.0 0.00 0.00 0.00 90 1012.3
20260901101534 80 162 0.0 0.0 0.00 0.00 0.00 90 1012.2
20260901100032 80 162 0.0 0.0 0.00 0.00 0.00 90 1012.3
20260901094531 80 162 0.0 0.0 0.00 0.00 0.00 89 1012.3
20260901093030 81 162 0.0 0.0 0.00 0.00 0.00 88 1012.4
20260901091529 81 162 0.0 0.0 0.00 0.00 0.00 88 1012.4
20260901090029 81 162 0.0 0.0 0.00 0.00 0.00 87 1012.4
20260901084528 81 162 0.0 0.0 0.00 0.00 0.00 87 1012.3
20260901083026 81 162 0.0 0.0 0.00 0.00 0.00 87 1012.4
20260901081526 80 162 0.0 0.0 0.00 0.00 0.00 88 1012.5
20260901080024 81 162 0.0 0.0 0.00 0.00 0.00 87 1012.7
20260901074524 81 162 0.0 0.0 0.00 0.00 0.00 87 1012.8
20260901073030 81 162 0.0 0.0 0.00 0.00 0.00 87 1012.6
20260901071522 81 162 0.0 0.0 0.00 0.00 0.00 87 1012.8
20260901070020 81 162 0.0 0.0 0.00 0.00 0.00 86 1012.7
20260901064519 82 162 0.0 0.0 0.00 0.00 0.00 85 1012.7
20260901063022 82 162 0.0 0.0 0.00 0.00 0.00 85 1012.8
20260901061517 82 162 0.0 0.0 0.00 0.00 0.00 84 1012.9
20260901060033 82 162 0.0 0.0 0.00 0.00 0.00 84 1013.0
20260901054515 83 162 0.0 0.0 0.00 0.00 0.00 83 1012.8
20260901053011 83 162 0.0 0.0 0.00 0.00 0.00 82 1012.7
20260901051509 83 162 0.0 0.0 0.00 0.00 0.00 82 1012.7
20260901050007 83 162 0.0 0.0 0.00 0.00 0.00 81 1012.6
20260901044507 84 162 0.0 0.0 0.00 0.00 0.00 81 1012.6
20260901043008 84 162 0.0 0.0 0.00 0.00 0.00 80 1012.4
20260901041506 84 162 0.0 0.0 0.00 0.00 0.00 79 1012.5
20260901040006 84 162 0.0 0.0 0.00 0.00 0.00 78 1012.5
20260901034504 84 159 0.0 0.0 0.00 0.00 0.00 77 1012.5
20260901033004 84 158 0.0 0.0 0.00 0.00 0.00 77 1012.2
20260901031505 85 158 0.0 0.0 0.00 0.00 0.00 76 1012.1
20260901030002 85 158 0.0 0.0 0.00 0.00 0.00 75 1011.9
20260901024502 85 158 0.0 0.0 0.00 0.00 0.00 75 1011.7
20260901023001 85 158 0.0 0.0 0.00 0.00 0.00 74 1011.4
20260901021503 86 158 0.0 0.0 0.00 0.00 0.00 73 1011.3
20260901020101 86 158 0.0 0.0 0.00 0.00 0.00 72 1011.1
20260901014600 87 158 0.0 0.0 0.00 0.00 0.00 71 1011.0
20260901013103 87 159 0.0 0.0 0.00 0.00 0.00 70 1011.0
20260901011600 88 159 0.0 0.0 0.00 0.00 0.00 70 1011.0
20260901010114 89 159 0.0 0.0 0.00 0.00 0.00 69 1010.9
20260901004558 90 159 0.0 0.0 0.00 0.00 0.00 67 1010.9
20260901003059 90 159 0.0 0.0 0.00 0.00 0.00 66 1011.0
20260901001557 91 159 0.0 0.0 0.00 0.00 0.00 65 1011.0
20260901000055 91 158 0.0 0.0 0.00 0.00 0.00 63 1011.1
20260831234555 91 119 0.0 0.0 0.00 0.00 0.00 62 1011.1
20260831233054 91 167 0.0 0.0 0.00 0.00 0.00 63 1011.2
20260831231556 91 177 0.0 0.0 0.00 0.00 0.00 62 1011.0
20260831230109 91 198 0.0 0.0 0.00 0.00 0.00 62 1011.0
20260831224554 91 57 0.0 0.0 0.00 0.00 0.00 61 1011.1
20260831223102 90 157 0.0 0.0 0.00 0.00 0.00 59 1011.2
20260831221556 90 167 0.0 0.0 0.00 0.00 0.00 60 1011.2
20260831220050 90 186 0.0 0.0 0.00 0.00 0.00 59 1011.3
20260831214555 90 177 0.0 0.0 0.00 0.00 0.00 60 1011.4
20260831213047 91 163 0.0 0.0 0.00 0.00 0.00 60 1011.7
20260831211544 91 147 0.0 0.0 0.00 0.00 0.00 62 1011.7
20260831210042 91 165 0.0 0.0 0.00 0.00 0.00 64 1011.9
20260831204541 91 194 0.0 31.0 0.00 0.00 0.00 64 1012.0
20260831203041 92 133 4.0 28.0 0.00 0.00 0.00 64 1012.1
20260831201539 94 165 0.0 45.0 0.00 0.00 0.00 61 1012.3